GW0996 Weather Reports


time (UTC)temp
F
wind
direction
speed
knots
gust
knots
rain 1hr
in
rain 24hr
in
rain mn
in
humidity
%
barometer
mb
20260507182543 64 307 0.0 1.7 0.00 0.00 0.00 64 1012.1
20260507182043 65 313 0.0 2.6 0.00 0.00 0.00 63 1011.9
20260507181547 65 315 1.7 2.6 0.00 0.00 0.00 59 1012.0
20260507181044 66 314 0.0 1.7 0.00 0.00 0.00 60 1011.8
20260507180046 66 314 0.9 2.6 0.00 0.00 0.00 57 1011.9
20260507175543 67 314 0.9 2.6 0.00 0.00 0.00 59 1011.7
20260507175043 67 314 0.9 2.6 0.00 0.00 0.00 59 1011.6
20260507174545 67 316 0.9 2.6 0.00 0.00 0.00 58 1011.6
20260507174043 67 312 0.9 1.7 0.00 0.00 0.00 57 1011.5
20260507173543 68 312 0.9 1.7 0.00 0.00 0.00 57 1011.4
20260507173044 69 311 0.0 1.7 0.00 0.00 0.00 54 1011.4
20260507172543 69 311 0.0 1.7 0.00 0.00 0.00 52 1011.2
20260507171545 69 311 0.9 2.6 0.00 0.00 0.00 52 1011.3
20260507171043 69 311 0.9 2.6 0.00 0.00 0.00 52 1011.2
20260507170546 69 310 0.9 2.6 0.00 0.00 0.00 51 1011.3
20260507170045 69 311 0.0 1.7 0.00 0.00 0.00 52 1011.1
20260507165542 69 311 0.9 1.7 0.00 0.00 0.00 49 1011.4
20260507165043 69 311 1.7 5.2 0.00 0.00 0.00 48 1011.4
20260507164545 69 315 0.9 5.2 0.00 0.00 0.00 48 1011.3
20260507164044 70 295 0.9 2.6 0.00 0.00 0.00 48 1011.5
20260507163045 69 307 0.0 1.7 0.00 0.00 0.00 51 1011.4
20260507162544 69 313 0.0 2.6 0.00 0.00 0.00 49 1011.4
20260507162043 69 313 0.9 2.6 0.00 0.00 0.00 52 1011.3
20260507161548 68 316 0.9 1.7 0.00 0.00 0.00 52 1011.5
20260507160534 69 316 0.0 1.7 0.00 0.00 0.00 51 1011.5
20260507155532 69 317 0.0 0.0 0.00 0.00 0.00 51 1011.5
20260507155034 70 317 0.0 1.7 0.00 0.00 0.00 49 1011.5
20260507154540 70 317 0.0 1.7 0.00 0.00 0.00 51 1011.2
20260507154032 71 320 0.0 6.1 0.00 0.00 0.00 47 1011.5
20260507153521 71 317 0.0 6.1 0.00 0.00 0.00 46 1011.5
20260507152524 71 335 0.0 1.7 0.00 0.00 0.00 43 1011.6
20260507152007 71 332 0.0 0.0 0.00 0.00 0.00 46 1011.7
20260507151511 71 332 0.0 1.7 0.00 0.00 0.00 43 1011.5
20260507151008 71 331 0.0 1.7 0.00 0.00 0.00 47 1011.5
20260507150509 71 49 0.9 6.1 0.00 0.00 0.00 46 1011.5
20260507150011 71 325 1.7 6.1 0.00 0.00 0.00 45 1011.5
20260507145508 71 323 2.6 6.1 0.00 0.00 0.00 48 1011.6
20260507145009 71 307 2.6 6.1 0.00 0.00 0.00 46 1011.7
20260507144510 71 326 1.7 5.2 0.00 0.00 0.00 47 1011.8
20260507144010 71 323 2.6 6.1 0.00 0.00 0.00 46 1011.7
20260507143509 72 314 4.3 6.1 0.00 0.00 0.00 44 1011.8
20260507143011 71 348 0.9 2.6 0.00 0.00 0.00 50 1011.9
20260507142008 71 6 0.0 3.5 0.00 0.00 0.00 46 1012.1
20260507141501 71 316 1.7 3.5 0.00 0.00 0.00 46 1012.0
20260507141001 72 304 0.0 2.6 0.00 0.00 0.00 47 1012.0
20260507140459 72 333 0.0 0.9 0.00 0.00 0.00 45 1012.0
20260507140000 72 328 0.0 0.9 0.00 0.00 0.00 46 1012.1
20260507135500 72 327 0.0 0.9 0.00 0.00 0.00 44 1012.1
20260507135000 72 327 0.0 0.9 0.00 0.00 0.00 44 1012.4
20260507134459 73 330 0.0 0.9 0.00 0.00 0.00 43 1012.2
20260507134000 73 320 0.9 1.7 0.00 0.00 0.00 45 1012.2
20260507133001 72 322 0.0 5.2 0.00 0.00 0.00 47 1012.3
20260507132501 72 320 0.9 5.2 0.00 0.00 0.00 46 1012.5
20260507132003 71 308 0.0 3.5 0.00 0.00 0.00 48 1012.5
20260507131501 71 315 0.9 5.2 0.00 0.00 0.00 45 1012.4
20260507131001 71 330 1.7 5.2 0.00 0.00 0.00 44 1012.4
20260507130501 72 326 0.9 5.2 0.00 0.00 0.00 47 1012.6
20260507125452 71 354 1.7 6.1 0.00 0.00 0.00 45 1012.6
20260507124949 73 315 4.3 6.1 0.00 0.00 0.00 42 1012.6
20260507124449 72 109 0.0 1.7 0.00 0.00 0.00 45 1012.6
20260507123948 71 290 0.0 1.7 0.00 0.00 0.00 44 1012.5
20260507123449 70 319 0.0 3.5 0.00 0.00 0.00 45 1012.6
20260507122950 71 319 0.0 3.5 0.00 0.00 0.00 49 1012.6
20260507122451 72 7 0.9 0.9 0.00 0.00 0.00 46 1012.7
20260507121948 71 6 0.0 2.6 0.00 0.00 0.00 46 1012.6
20260507121449 70 16 0.0 3.5 0.00 0.00 0.00 49 1012.9
20260507120947 70 274 0.9 3.5 0.00 0.00 0.00 48 1012.9
20260507120448 71 315 1.7 3.5 0.00 0.00 0.00 46 1012.8
20260507115949 69 336 1.7 3.5 0.00 0.00 0.00 49 1012.9
20260507115449 70 328 0.9 3.5 0.00 0.00 0.00 46 1012.8
20260507114951 69 310 0.0 6.1 0.00 0.00 0.00 52 1012.8
20260507114450 69 308 3.5 6.1 0.00 0.00 0.00 48 1013.0
20260507113950 69 311 2.6 5.2 0.00 0.00 0.00 49 1012.9
20260507113448 71 316 2.6 5.2 0.00 0.00 0.00 48 1013.1
20260507112948 69 117 0.0 2.6 0.00 0.00 0.00 55 1013.1
20260507112448 69 118 0.9 2.6 0.00 0.00 0.00 50 1013.1
20260507111949 68 21 0.0 6.1 0.00 0.00 0.00 53 1012.9
20260507111447 69 322 3.5 7.8 0.00 0.00 0.00 50 1013.1
20260507110952 69 314 1.7 7.8 0.00 0.00 0.00 50 1013.4
20260507110450 68 101 0.9 7.0 0.00 0.00 0.00 54 1013.2
20260507105950 69 312 1.7 6.1 0.00 0.00 0.00 53 1013.4
20260507105447 69 316 2.6 6.1 0.00 0.00 0.00 51 1013.3
20260507104447 69 313 1.7 7.0 0.00 0.00 0.00 50 1013.5
20260507103949 68 313 1.7 7.8 0.00 0.00 0.00 53 1013.3
20260507103449 67 322 0.9 8.7 0.00 0.00 0.00 55 1013.5
20260507102949 66 318 3.5 8.7 0.00 0.00 0.00 54 1013.7
20260507102449 67 312 2.6 6.1 0.00 0.00 0.00 55 1013.6
20260507101937 68 339 0.0 7.0 0.00 0.00 0.00 54 1013.7
20260507101436 68 325 2.6 7.0 0.00 0.00 0.00 52 1013.6
20260507100936 67 353 0.9 7.8 0.00 0.00 0.00 59 1013.7
20260507100424 66 320 3.5 8.7 0.00 0.00 0.00 55 1013.8
20260507095924 67 316 6.1 8.7 0.00 0.00 0.00 53 1013.9
20260507095423 67 313 0.9 7.0 0.00 0.00 0.00 51 1013.5
20260507094913 67 334 3.5 7.0 0.00 0.00 0.00 53 1013.5
20260507094413 67 310 2.6 7.0 0.00 0.00 0.00 53 1013.6
20260507093914 68 313 3.5 7.0 0.00 0.00 0.00 52 1013.6
20260507093413 69 319 2.6 3.5 0.00 0.00 0.00 52 1013.7
20260507092912 69 331 0.0 3.5 0.00 0.00 0.00 53 1013.6
20260507092413 67 255 0.0 5.2 0.00 0.00 0.00 53 1013.6
20260507091912 67 310 0.0 6.1 0.00 0.00 0.00 55 1013.6
20260507090400 68 312 0.0 5.2 0.00 0.00 0.00 53 1013.5
20260507085901 70 322 1.7 5.2 0.00 0.00 0.00 48 1013.7
20260507084900 69 306 0.0 2.6 0.00 0.00 0.00 50 1013.5
20260507084401 69 357 0.0 1.7 0.00 0.00 0.00 52 1013.3
20260507083901 68 335 1.7 3.5 0.00 0.00 0.00 48 1013.3
20260507082850 68 327 1.7 3.5 0.00 0.00 0.00 48 1013.3
20260507082348 69 130 0.0 0.9 0.00 0.00 0.00 48 1013.3
20260507081847 67 279 0.0 1.7 0.00 0.00 0.00 49 1013.5
20260507081348 66 308 0.9 1.7 0.00 0.00 0.00 52 1013.4
20260507080848 67 146 0.0 0.9 0.00 0.00 0.00 51 1013.3
20260507080347 66 132 0.0 0.9 0.00 0.00 0.00 62 1013.4
20260507075847 67 130 0.0 1.7 0.00 0.00 0.00 57 1013.3
20260507075349 66 130 0.0 1.7 0.00 0.00 0.00 61 1013.2
20260507074849 64 359 0.0 0.9 0.00 0.00 0.00 69 1013.2
20260507074351 64 359 0.0 1.7 0.00 0.00 0.00 69 1013.3
20260507073849 63 357 0.0 1.7 0.00 0.00 0.00 70 1013.5
20260507073349 63 17 0.0 0.9 0.00 0.00 0.00 69 1013.5
20260507072847 62 18 0.0 0.0 0.00 0.00 0.00 73 1013.5
20260507071836 62 18 0.0 0.0 0.00 0.00 0.00 72 1013.3
20260507071335 60 18 0.0 0.0 0.00 0.00 0.00 77 1013.4
20260507065825 58 17 0.0 0.9 0.00 0.00 0.00 78 1013.3
20260507065323 58 19 0.0 0.0 0.00 0.00 0.00 80 1013.5
20260507064815 58 19 0.0 0.0 0.00 0.00 0.00 79 1013.3
20260507064314 57 19 0.0 0.0 0.00 0.00 0.00 83 1013.2
20260507063813 56 18 0.0 0.0 0.00 0.00 0.00 83 1013.4
20260507063302 57 19 0.0 0.0 0.00 0.00 0.00 82 1013.3
20260507062800 56 19 0.0 0.0 0.00 0.00 0.00 82 1013.3
20260507062301 55 19 0.0 0.0 0.00 0.00 0.00 86 1013.3
20260507061301 56 19 0.0 0.0 0.00 0.00 0.00 85 1013.5
20260507055802 52 16 0.0 0.0 0.00 0.01 0.00 95 1013.3
20260507055305 52 16 0.0 0.0 0.00 0.02 0.00 94 1013.3
20260507054758 51 16 0.0 0.0 0.00 0.03 0.00 95 1013.2
20260507054259 50 16 0.0 0.0 0.00 0.03 0.00 95 1013.2
20260507053801 50 16 0.0 0.9 0.00 0.03 0.00 95 1013.2
20260507053302 50 15 0.0 0.9 0.00 0.03 0.00 95 1013.4
20260507052800 49 317 0.0 0.0 0.00 0.03 0.00 95 1013.1
20260507052305 49 316 0.0 0.0 0.00 0.03 0.00 94 1013.1
20260507051301 48 316 0.0 0.0 0.00 0.03 0.00 94 1013.2
20260507050300 48 316 0.0 0.9 0.00 0.03 0.00 94 1013.0
20260507045735 49 316 0.0 0.9 0.00 0.03 0.00 94 1013.0
20260507045236 48 316 0.0 0.0 0.00 0.03 0.00 94 1013.0
20260507044720 48 317 0.0 0.0 0.00 0.03 0.00 94 1012.8
20260507044214 48 317 0.0 0.0 0.00 0.03 0.00 94 1012.7
20260507043700 48 317 0.0 0.0 0.00 0.03 0.00 93 1012.7
20260507043201 48 317 0.0 0.0 0.00 0.03 0.00 93 1012.8
20260507042700 49 317 0.0 0.0 0.00 0.03 0.00 93 1012.8
20260507042203 49 317 0.0 0.0 0.00 0.03 0.00 93 1012.4
20260507041647 49 317 0.0 0.0 0.00 0.03 0.00 93 1012.3
20260507041150 49 317 0.0 0.0 0.00 0.03 0.00 93 1012.5
20260507040651 49 317 0.0 0.0 0.00 0.03 0.00 93 1012.4
20260507040149 49 317 0.0 0.0 0.00 0.03 0.00 93 1012.5
20260507035648 49 317 0.0 0.0 0.00 0.03 0.00 93 1012.3
20260507035151 49 316 0.0 0.0 0.00 0.03 0.00 93 1012.4
20260507034650 49 317 0.0 0.0 0.00 0.03 0.00 93 1012.3
20260507034149 50 317 0.0 0.9 0.00 0.03 0.00 93 1012.3
20260507033651 50 317 0.0 0.9 0.00 0.03 0.00 92 1012.4
20260507033150 50 316 0.0 0.0 0.00 0.03 0.00 92 1012.1
20260507032628 50 316 0.0 0.0 0.00 0.03 0.00 92 1012.2
20260507032123 51 316 0.0 0.0 0.00 0.03 0.00 92 1012.4
20260507031607 51 316 0.0 0.0 0.00 0.03 0.00 91 1012.3
20260507030600 51 316 0.0 0.0 0.00 0.03 0.00 91 1012.3
20260507030053 51 315 0.0 0.0 0.00 0.03 0.00 91 1012.3
20260507025550 51 314 0.0 0.0 0.00 0.03 0.00 91 1012.3
20260507025046 52 314 0.0 0.0 0.00 0.03 0.00 90 1012.3
20260507024541 52 314 0.0 0.0 0.00 0.03 0.00 90 1012.2
20260507024038 52 314 0.0 0.0 0.00 0.03 0.00 90 1012.3
20260507023519 53 314 0.0 0.0 0.00 0.03 0.00 89 1012.4
20260507023013 53 314 0.0 0.0 0.00 0.03 0.00 88 1012.2
20260507022455 54 314 0.0 0.0 0.00 0.03 0.00 88 1012.1
20260507021950 54 314 0.0 0.0 0.00 0.03 0.00 88 1012.1
20260507021447 54 314 0.0 0.0 0.00 0.03 0.00 88 1012.3
20260507015949 54 314 0.0 0.0 0.00 0.03 0.00 88 1012.2
20260507014950 54 314 0.0 0.0 0.00 0.04 0.00 89 1012.1
20260507014449 53 314 0.0 0.0 0.00 0.04 0.00 88 1011.7
20260507013951 54 314 0.0 0.0 0.00 0.04 0.00 87 1012.1
20260507013449 54 314 0.0 0.0 0.00 0.04 0.00 87 1011.9
20260507012949 54 314 0.0 0.0 0.00 0.04 0.00 88 1012.1
20260507012452 54 314 0.0 0.9 0.00 0.04 0.00 87 1012.0
20260507011947 54 311 0.0 0.9 0.00 0.04 0.00 87 1012.2
20260507011448 54 311 0.0 0.9 0.00 0.04 0.00 87 1012.2
20260507010446 55 311 0.0 0.0 0.00 0.04 0.00 85 1012.3
20260507005951 55 311 0.0 0.0 0.00 0.04 0.00 85 1012.3
20260507004947 55 311 0.0 0.0 0.00 0.04 0.00 83 1012.4
20260507004448 56 311 0.0 0.0 0.00 0.04 0.00 82 1012.3
20260507003950 56 311 0.0 0.9 0.00 0.04 0.00 80 1012.3
20260507002948 57 311 0.0 0.0 0.00 0.04 0.00 76 1012.2
20260507002449 57 311 0.0 0.0 0.00 0.04 0.00 76 1012.4
20260507001951 57 311 0.0 0.0 0.00 0.04 0.00 74 1012.3
20260507001448 57 311 0.0 1.7 0.00 0.04 0.00 74 1012.3
20260507000936 57 311 0.0 2.6 0.00 0.04 0.00 75 1012.3
20260507000435 57 311 0.0 2.6 0.00 0.04 0.00 74 1012.2
20260506235926 57 312 0.9 1.7 0.00 0.04 0.00 74 1012.4
20260506234926 57 308 1.7 5.2 0.00 0.04 0.00 74 1012.4
20260506234414 57 310 0.9 5.2 0.00 0.04 0.00 74 1012.5
20260506233913 57 326 1.7 3.5 0.00 0.04 0.00 74 1012.4
20260506233411 58 312 0.9 2.6 0.00 0.04 0.00 73 1012.4
20260506232903 58 312 0.9 2.6 0.00 0.04 0.00 72 1012.5
20260506231903 58 318 1.7 2.6 0.00 0.04 0.00 71 1012.5
20260506231402 58 316 1.7 2.6 0.00 0.04 0.00 72 1012.3
20260506230400 58 314 0.0 1.7 0.00 0.04 0.00 73 1012.6
20260506225359 58 313 1.7 3.5 0.00 0.04 0.00 70 1012.5
20260506224902 58 308 1.7 3.5 0.00 0.04 0.00 71 1012.2
20260506224401 58 314 1.7 3.5 0.00 0.04 0.00 73 1012.3
20260506223903 58 320 1.7 5.2 0.00 0.04 0.00 73 1012.3
20260506223349 58 313 0.9 5.2 0.00 0.04 0.00 73 1012.4
20260506222846 58 326 2.6 5.2 0.00 0.05 0.00 73 1012.5
20260506222348 58 322 0.9 5.2 0.00 0.05 0.00 74 1012.6
20260506221849 58 313 1.7 7.0 0.00 0.05 0.00 75 1012.6
20260506221348 58 315 1.7 7.0 0.00 0.06 0.00 75 1012.4
20260506220849 59 308 3.5 6.1 0.00 0.06 0.00 75 1012.2
20260506220350 59 317 4.3 6.1 0.00 0.06 0.00 76 1012.4
20260506215848 59 315 1.7 6.1 0.00 0.07 0.06 75 1012.2
20260506215350 59 317 0.9 5.2 0.00 0.07 0.06 76 1012.4
20260506214851 59 310 2.6 5.2 0.00 0.07 0.06 75 1012.3
20260506214349 59 329 2.6 3.5 0.00 0.07 0.06 76 1012.3
20260506213849 59 318 1.7 6.1 0.00 0.07 0.06 76 1012.2
20260506211851 59 311 0.0 5.2 0.00 0.07 0.06 79 1012.0
20260506211347 59 313 0.9 5.2 0.00 0.07 0.06 78 1012.1
20260506210849 59 330 3.5 5.2 0.00 0.07 0.06 78 1012.1
20260506210349 59 314 0.9 3.5 0.00 0.07 0.06 79 1012.0
20260506205835 59 319 0.0 2.6 0.00 0.07 0.06 80 1012.1
20260506205336 59 313 0.0 2.6 0.00 0.07 0.06 79 1011.9
20260506204834 59 326 0.0 2.6 0.00 0.07 0.06 79 1011.9
20260506204311 59 323 0.0 3.5 0.00 0.07 0.06 79 1012.0
20260506203300 60 313 0.9 2.6 0.00 0.07 0.06 79 1011.8
20260506202801 60 306 0.0 2.6 0.00 0.07 0.06 79 1011.6
20260506202306 60 296 0.9 7.0 0.00 0.07 0.06 79 1011.6
20260506201300 60 310 0.9 7.8 0.00 0.07 0.06 79 1011.5
20260506200803 60 302 2.6 7.8 0.00 0.07 0.06 79 1011.7
20260506200302 60 312 0.9 1.7 0.00 0.07 0.06 81 1011.6
20260506195759 60 309 0.0 1.7 0.00 0.07 0.06 82 1011.6
20260506195251 60 309 0.0 3.5 0.00 0.07 0.06 82 1011.4
20260506194747 60 317 0.0 3.5 0.00 0.07 0.06 81 1011.2
20260506193223 60 342 0.0 0.9 0.00 0.07 0.06 82 1011.2
20260506192708 60 333 0.0 1.7 0.00 0.08 0.06 82 1011.2
20260506192211 60 333 0.0 1.7 0.00 0.09 0.06 82 1011.2
20260506191655 60 319 0.9 2.6 0.00 0.10 0.06 81 1011.1
20260506191156 61 10 0.0 3.5 0.00 0.11 0.06 81 1010.9
20260506190656 61 315 1.7 3.5 0.00 0.13 0.06 81 1010.9
20260506190155 61 339 0.0 1.7 0.00 0.14 0.06 82 1010.9
20260506185643 61 358 0.0 2.6 0.00 0.15 0.06 81 1010.7
20260506185145 61 4 0.0 2.6 0.00 0.16 0.06 81 1010.7
20260506184645 61 309 0.9 2.6 0.00 0.17 0.06 79 1010.7
20260506184144 62 1 0.0 2.6 0.00 0.18 0.06 77 1010.7
20260506183643 62 42 0.9 2.6 0.00 0.19 0.06 75 1010.6
20260506183144 62 300 0.0 1.7 0.00 0.20 0.06 74 1010.5